Regional Weather Roundup
Issued by NWS

Home | Current Version | Previous Version | Graphics & Text | Print | Product List | Glossary On
Versions: 1 2 3 4 5 6 7 8 9 10 11 12 13 14 15 16 17 18 19 20 21 22 23 24 25 26 27
000
ASUS45 KBOI 231810
RWRID

IDAHO REGIONAL WEATHER ROUNDUP
NATIONAL WEATHER SERVICE BOISE ID
1200 PM MDT THU MAR 23 2017

NOTE: "FAIR" INDICATES FEW OR NO CLOUDS BELOW 12000 FEET
WITH NO SIGNIFICANT WEATHER AND/OR OBSTRUCTIONS TO VISIBILITY

IDZ012-014-231900-
SOUTHWEST IDAHO


CITY           SKY/WX    TMP DP  RH WIND       PRES   REMARKS
BOISE          SUNNY     49  32  52 NW15      30.03R
CALDWELL       SUNNY     50  31  48 W16       30.06
MOUNTAIN HOME  SUNNY     50  33  53 NW25G32   30.01R
$$

IDZ016-017-231900-
SOUTHCENTRAL IDAHO


CITY           SKY/WX    TMP DP  RH WIND       PRES   REMARKS
BURLEY         CLOUDY    43  32  65 W20G36    29.91S
JEROME         SUNNY     46  33  60 W24G33    29.94R
TWIN FALLS     SUNNY     46  31  55 W29G36    29.95R
$$

IDZ019>023-231900-
SOUTHEAST IDAHO


CITY           SKY/WX    TMP DP  RH WIND       PRES   REMARKS
IDAHO FALLS    CLOUDY    48  33  56 NW15      29.84S
POCATELLO      CLOUDY    40  36  86 SW22      29.90S WCI  30
REXBURG        CLOUDY    46  32  58 NW3       29.83S
$$

IDZ006-010-011-018-031-032-231900-
CENTRAL IDAHO MOUNTAINS


CITY           SKY/WX    TMP DP  RH WIND       PRES   REMARKS
MCCALL         SUNNY     38  23  55 W8        29.96S WCI  32
HAILEY         MOSUNNY   48  21  34 NW9       29.89S
STANLEY          N/A     37  23  56 N5        29.95R WCI  33
SALMON         CLOUDY    48  23  37 E6        29.95R
CHALLIS        MOSUNNY   47  24  40 N14       29.93R
$$

IDZ002-004-006-007-026-231900-
NORTHERN IDAHO


CITY           SKY/WX    TMP DP  RH WIND       PRES   REMARKS
LEWISTON       SUNNY     46  38  73 NW5       30.10S
LOWELL           N/A     51  36  56 NE6       30.10F
COEUR D`ALENE  CLOUDY    42  32  67 S14       30.07S
MULLAN PASS    MIX PCPN  26  25  96 CALM      29.98R VSB 1
$$




USA.gov is the U.S. government's official web portal to all federal, state and local government web resources and services.